STARLINK-35847, 66621

Orbit data source: Space-Track

STARLINK-35847, 66621 is a payload satellite owned by SpaceX/Seattle (US) in LEO that was launched on Sun, 23 Nov 2025 UTC via an FALCON 9 launch vehicle from the Air Force Western Test Range (AFWTR). Payload-class satellites include a variety of spacecraft equipped with specific instruments for various scientific and technological missions. These include communications satellites like Starlink; space stations such as the ISS; scientific satellites like the Hubble; Earth observation satellites from companies like Planet Labs, Umbra, and HawkEye 360; GPS; miniature CubeSats for education and research; and military/defense satellites.

Loading next visibility...
Identifier
66621, 2025-271E
Orbit
LEO
Country
Flag of USUS
Related business
Manufacturer
SpaceX/Seattle
Mission
Operational Commercial Communications
Bus & Motor
STARLINK V2MO, Unknown motor
Mass
575 kg wet, ~530 kg dry
Launch date (UTC)
2025-11-23 (1 month ago)
Launch vehicle
FALCON 9
Launch site
Air Force Western Test Range (AFWTR)
Object type
Payload
Rocket body
Debris
Shape & HBR
Box + 2 Pan, 17.7 m
Radar Cross Section
36.964 m²

Expand to show TLE details & history
Last TLE update: 2 days ago

TLE from 2 days ago
0 STARLINK-35847
1 66621U 25271E   25353.93936154 -.00261578  00000-0 -53109-2 0  9997
2 66621  53.1594 152.6978 0000574 182.8412 177.2593 15.46739890  5326
Epoch: 2025-12-19T22:32Z
TLE epoch observation values (Epoch: 2025-12-19T22:32:40.837Z)
Latitude
0.00002°
Longitude
85.75434°
Altitude
427.567 km
Speed
7.656 km/s
True Right ascension
10h 10m 47s
True Declination
0° 00' 00"
Sunlit
Object was in full shadow at epoch
Visualization orbit readout
Latitude
Unknown
Longitude
Unknown
Altitude
Unknown
Speed
Unknown
Apparent Right ascension
Unknown
Apparent Declination
Unknown
Sunlit
N/A
Visualization observer readout
Local Sidereal Time
15:47:43
Azimuth
Unknown
Elevation
Unknown
Doppler factor
Unknown
Orbital elements
Apogee altitude
426.919 km
Perigee altitude
426.138 km
Semi-major axis
6,804.666 km
Eccentricity
0.00006
Inclination
53.1594°
RAAN
152.6978°
Arg. of periapsis
182.8412°
True anomaly
177.25961°
Mean anomaly
177.2593°
Eccentric anomaly
177.25946°
Mean motion
3.86663 °/min
Orbital period
93.1 mins
BSTAR
-0.0053109
Loading maneuver chart data...
Computing Atmospheric mass density...
Loading historical data...
Loading historical data...
Loading historical data...
Loading historical data...
Loading historical data...
Loading historical data...
Loading historical data...

Documentation

Showing up to 5 results
|